Home   Weather   Pontiac   Past weeks

Flag for USA Past Weather in Pontiac, Michigan, USA — Yesterday and Last 2 Weeks

Now
63 °F

Passing clouds.


Feels Like: 63 °F
Forecast: 54 / 64 °F
Wind: 10 mph from Southeast

Location: Oakland County International Airport

Current Time: Sep 26, 2016 at 1:30:54 AM

Latest Report: Sep 26, 2016 at 12:53 AM


Visibility: 10 mi

Pressure: 29.96 "Hg

Humidity: 75%

Dew Point: 55 °F

Location of PontiacLocation

Past Weather in Pontiac — Graph

°F

Pontiac Temperature Yesterday

Maximum temperature yesterday: 71 °F (at 2:53 PM)
Minimum temperature yesterday: 48 °F (at 2:53 AM)
Average temperature yesterday: 60 °F

High & Low Weather Summary for the Past Weeks

 TemperatureHumidityPressure
High84 °F (Sep 22, 1:53 PM)100% (Sep 18, 8:53 AM)30.31 "Hg (Sep 18, 8:53 AM)
Low48 °F (Sep 25, 2:53 AM)36% (Sep 20, 5:53 PM)29.86 "Hg (Sep 17, 5:53 PM)
Average66 °F73%30.11 "Hg
* Reported Sep 10 11:53 PM — Sep 25 11:53 PM, Pontiac, Weather by CustomWeather, © 2016

Note: Actual official high and low records may vary slightly from our data, if they occured in-between our weather recording intervals... More about our weather records

Advertising

Pontiac Weather History for the Previous 24 Hours

Scroll right to see more
 ConditionsComfort  
Time TempWeatherWind HumidityBarometerVisibility
11:53 PM
Sun, Sep 25
62 °FMostly cloudy.9 mph73%29.98 "Hg10 mi
10:53 PM62 °FMostly cloudy.7 mph67%30.01 "Hg10 mi
9:53 PM62 °FMostly cloudy.10 mph60%30.03 "Hg10 mi
8:53 PM64 °FMostly cloudy.10 mph52%30.04 "Hg10 mi
7:53 PM65 °FMostly cloudy.9 mph51%30.05 "Hg10 mi
6:53 PM67 °FMore clouds than sun.9 mph49%30.06 "Hg10 mi
5:53 PM69 °FMostly cloudy.13 mph45%30.06 "Hg10 mi
4:53 PM71 °FOvercast.12 mph44%30.08 "Hg10 mi
3:53 PM71 °FOvercast.9 mph44%30.10 "Hg10 mi
2:53 PM71 °FOvercast.10 mph44%30.13 "Hg10 mi
1:53 PM70 °FPartly sunny.12 mph46%30.15 "Hg10 mi
12:53 PM68 °FPartly sunny.9 mph53%30.18 "Hg10 mi
11:53 AM66 °FScattered clouds.5 mph59%30.19 "Hg10 mi
10:53 AM64 °FScattered clouds.13 mph65%30.19 "Hg10 mi
9:53 AM61 °FScattered clouds.8 mph75%30.20 "Hg10 mi
8:53 AM55 °FScattered clouds.6 mph80%30.21 "Hg10 mi
7:53 AM49 °FScattered clouds.No wind86%30.21 "Hg10 mi
6:53 AM48 °FPassing clouds.5 mph86%30.20 "Hg10 mi
5:53 AM48 °FClear.3 mph86%30.20 "Hg10 mi
4:53 AM48 °FClear.No wind86%30.20 "Hg10 mi
3:53 AM48 °FClear.No wind86%30.21 "Hg10 mi
2:53 AM48 °FClear.No wind86%30.22 "Hg10 mi
1:53 AM52 °FClear.No wind77%30.23 "Hg10 mi
Weather by CustomWeather, © 2016

See weather overviewHow to use our weather pages